Location: Cieszkowy
(50.3290°N, 20.5336°E)
Time: 14:11:06
(UTC+00:00)

ASTEX 1 - Pass Details

Date: 15 June 2024
Orbit: 717 x 738 km, 92.7° (Epoch: 14 July)

Event Time Altitude Azimuth Distance (km) Brightness Sun altitude
Exits shadow 00:35:07 - 153° (SSE) 3,090 6.3 -12.0°
Reaches altitude 10° 00:37:23 10° 147° (SSE) 2,202 5.6 -11.8°
Maximum altitude 00:41:59 44° 76° (ENE) 989 4.4 -11.4°
Drops below altitude 10° 00:46:37 10° 5° (N) 2,214 7.0 -11.1°
Sets 00:48:58 0° 360° (N) 3,140 7.8 -10.9°
